Вернуться в каталог

STARLINK-2194

АктивенСвязьVLEO
NORAD 47771·PAYLOAD·🇺🇸 United States

Запущен Mar 4, 2021 с Cape Canaveral Space Force Station

Loading…

Ближайшие Пролёты (ближайшие 24 часа)

TLE

СвежийSource: CelesTrak SupGP

Эпоха: Sep 14, 2026, 20:43 UTC

1 47771C 21017BB  26257.86368056  .00092896  00000+0  26508-2 0  2574
2 47771  53.1582  43.0366 0001005   5.2091 149.4260 15.35435639    18

Отслеживайте STARLINK-2194 в реальном времени с AllMySat

Download on the App Store